Hourly Data Report for July 03, 2006

TORONTO CITY
ONTARIO

43°40'00.000" N
79°24'00.000" W
112.50 m
6158355
71508
XTO

Download Data

Hourly Data (July 2006)
Hourly Data Report for July 3, 2006
TIME
LST
Temp Definition
°C
Dew Point Definition
°C
Rel Hum Definition
%
Precip. Amount Definition
mm

Wind Dir Definition
10's deg

Wind Spd Definition
km/h
Visibility Definition
km
Stn Press Definition
kPa
Hmdx Definition


Wind Chill Definition


Weather Definition


00:00 21.5 18.1 81   LegendMM LegendMM   100.11 28   LegendNANA
01:00 20.6 18.2 86   LegendMM LegendMM   100.06 27   LegendNANA
02:00 20.6 18.7 89   LegendMM LegendMM   100.06 27   LegendNANA
03:00 20.4 18.6 89   LegendMM LegendMM   100.09 27   LegendNANA
04:00 20.1 18.2 89   LegendMM LegendMM   100.10 26   LegendNANA
05:00 20.4 18.5 89   LegendMM LegendMM   100.12 27   LegendNANA
06:00 20.8 19.4 92   LegendMM LegendMM   100.14 28   LegendNANA
07:00 21.9 19.0 84   LegendMM LegendMM   100.15 29   LegendNANA
08:00 22.6 19.6 83   LegendMM LegendMM   100.16 30   LegendNANA
09:00 23.6 20.7 84   LegendMM LegendMM   100.20 32   LegendNANA
10:00 24.9 21.0 79   LegendMM LegendMM   100.18 33   LegendNANA
11:00 25.4 21.4 79   LegendMM LegendMM   100.18 34   LegendNANA
12:00 27.3 21.2 69   LegendMM LegendMM   100.10 36   LegendNANA
13:00 27.5 20.0 64   LegendMM LegendMM   100.04 35   LegendNANA
14:00 26.9 19.1 62   LegendMM LegendMM   99.98 34   LegendNANA
15:00 26.8 20.2 67   LegendMM LegendMM   99.94 35   LegendNANA
16:00 26.3 19.4 66   LegendMM LegendMM   99.94 33   LegendNANA
17:00 26.7 19.4 64   LegendMM LegendMM   99.92 34   LegendNANA
18:00 26.9 17.9 58   LegendMM LegendMM   99.90 33   LegendNANA
19:00 26.9 16.8 54   LegendMM LegendMM   99.92 32   LegendNANA
20:00 26.6 18.0 59   LegendMM LegendMM   99.90 33   LegendNANA
21:00 23.5 18.0 71   LegendMM LegendMM   99.97 30   LegendNANA
22:00 22.9 19.2 80   LegendMM LegendMM   99.98 30   LegendNANA
23:00 23.5 20.0 81   LegendMM LegendMM   99.95 31   LegendNANA

Notes on Data Quality.

Legend

  • E = Estimated
  • M = Missing
  • NA = Not Available*
  • [empty] = Indicates an unobserved value
Date modified: